timestamp,wind_dir_avg,wind_spd_avg,wind_spd_max_dir,wind_spd_gust,battery_voltage,lat,long
2021-04-09 00:04:01+00:00,41.0,10.91,39.0,11.98,12.65,47.59359,-54.27349
2021-04-09 00:14:01+00:00,40.0,11.61,43.0,13.52,12.57,47.59359,-54.27349
2021-04-09 00:24:01+00:00,41.0,10.56,39.0,12.16,12.57,47.59359,-54.27349
2021-04-09 00:34:01+00:00,42.0,10.69,42.0,12.21,12.57,47.59359,-54.27349
2021-04-09 00:44:01+00:00,43.0,10.25,43.0,11.87,12.57,47.59359,-54.27349
2021-04-09 00:54:01+00:00,48.0,8.89,43.0,10.27,12.57,47.59359,-54.27349
2021-04-09 01:04:01+00:00,51.0,9.03,54.0,10.41,12.57,47.59359,-54.27349
2021-04-09 01:14:01+00:00,52.0,8.79,51.0,9.86,12.57,47.59359,-54.27349
2021-04-09 01:24:01+00:00,47.0,8.79,48.0,9.63,12.57,47.59359,-54.27349
2021-04-09 01:34:01+00:00,44.0,10.13,42.0,11.12,12.57,47.59359,-54.27349
2021-04-09 01:44:01+00:00,44.0,9.85,43.0,10.91,12.57,47.59359,-54.27349
2021-04-09 01:54:01+00:00,48.0,8.99,48.0,10.18,12.57,47.59359,-54.27349
2021-04-09 02:04:01+00:00,47.0,9.03,43.0,9.9,12.57,47.59359,-54.27349
2021-04-09 02:14:01+00:00,41.0,9.59,39.0,10.46,12.49,47.59359,-54.27349
2021-04-09 02:24:01+00:00,44.0,9.31,44.0,10.57,12.49,47.59359,-54.27349
2021-04-09 02:34:01+00:00,43.0,8.88,43.0,9.98,12.49,47.59359,-54.27349
2021-04-09 02:44:01+00:00,43.0,9.3,37.0,10.46,12.49,47.59359,-54.27349
2021-04-09 02:54:01+00:00,50.0,8.86,48.0,9.96,12.49,47.59359,-54.27349
2021-04-09 03:04:01+00:00,45.0,9.68,38.0,11.6,12.49,47.59359,-54.27349
2021-04-09 03:14:01+00:00,46.0,9.62,42.0,11.0,12.49,47.59359,-54.27349
2021-04-09 03:24:01+00:00,45.0,9.88,45.0,10.79,12.49,47.59359,-54.27349
2021-04-09 03:34:01+00:00,45.0,9.86,45.0,10.87,12.49,47.59359,-54.27349
2021-04-09 03:44:01+00:00,45.0,8.84,41.0,9.84,12.49,47.59359,-54.27349
2021-04-09 03:54:01+00:00,43.0,8.76,44.0,9.18,12.49,47.59359,-54.27349
2021-04-09 04:04:01+00:00,37.0,9.59,38.0,10.59,12.49,47.59359,-54.27349
2021-04-09 04:14:01+00:00,41.0,10.04,42.0,10.98,12.49,47.59359,-54.27349
2021-04-09 04:24:01+00:00,38.0,10.57,38.0,11.53,12.49,47.59359,-54.27349
2021-04-09 04:34:01+00:00,39.0,10.34,37.0,11.21,12.49,47.59359,-54.27349
2021-04-09 04:44:01+00:00,40.0,9.61,39.0,10.33,12.49,47.59359,-54.27349
2021-04-09 04:54:01+00:00,36.0,9.12,35.0,10.08,12.49,47.59359,-54.27349
2021-04-09 05:04:01+00:00,36.0,8.12,34.0,9.1,12.49,47.59359,-54.27349
2021-04-09 05:14:01+00:00,40.0,8.03,43.0,8.89,12.49,47.59359,-54.27349
2021-04-09 05:24:01+00:00,40.0,8.12,45.0,8.86,12.49,47.59359,-54.27349
2021-04-09 05:34:01+00:00,45.0,7.26,51.0,8.33,12.49,47.59359,-54.27349
2021-04-09 05:44:01+00:00,36.0,8.4,37.0,9.4,12.49,47.59359,-54.27349
2021-04-09 05:54:01+00:00,34.0,8.27,36.0,9.27,12.49,47.59359,-54.27349
2021-04-09 06:04:01+00:00,39.0,7.7,38.0,8.78,12.49,47.59359,-54.27349
2021-04-09 06:14:01+00:00,29.0,8.14,31.0,9.17,12.41,47.59359,-54.27349
2021-04-09 06:24:01+00:00,28.0,8.67,30.0,10.44,12.41,47.59359,-54.27349
2021-04-09 06:34:01+00:00,34.0,8.93,33.0,10.05,12.41,47.59359,-54.27349
2021-04-09 06:44:01+00:00,34.0,8.5,34.0,10.07,12.41,47.59359,-54.27349
2021-04-09 06:54:01+00:00,33.0,8.46,32.0,9.38,12.41,47.59359,-54.27349
2021-04-09 07:04:01+00:00,38.0,9.89,40.0,10.7,12.41,47.59359,-54.27349
2021-04-09 07:14:01+00:00,37.0,9.21,41.0,9.93,12.41,47.59359,-54.27349
2021-04-09 07:24:01+00:00,31.0,9.85,30.0,10.74,12.41,47.59359,-54.27349
2021-04-09 07:34:01+00:00,30.0,9.68,31.0,10.82,12.41,47.59359,-54.27349
2021-04-09 07:44:01+00:00,28.0,10.66,29.0,12.67,12.41,47.59359,-54.27349
2021-04-09 07:54:01+00:00,26.0,10.04,28.0,12.05,12.41,47.59359,-54.27349
2021-04-09 08:04:01+00:00,25.0,10.75,28.0,11.99,12.41,47.59359,-54.27349
2021-04-09 08:14:01+00:00,30.0,10.22,34.0,11.88,12.41,47.59359,-54.27349
2021-04-09 08:24:01+00:00,35.0,10.8,35.0,11.7,12.41,47.59359,-54.27349
2021-04-09 08:34:01+00:00,32.0,10.59,33.0,11.71,12.41,47.59359,-54.27349
2021-04-09 08:44:01+00:00,31.0,10.82,30.0,11.8,12.41,47.59359,-54.27349
2021-04-09 08:54:01+00:00,21.0,9.27,17.0,10.23,12.41,47.59359,-54.27349
2021-04-09 09:04:01+00:00,23.0,9.52,23.0,10.28,12.41,47.59359,-54.27349
2021-04-09 09:14:01+00:00,25.0,9.99,21.0,11.09,12.41,47.59359,-54.27349
2021-04-09 09:24:01+00:00,30.0,10.83,30.0,12.07,12.41,47.59359,-54.27349
2021-04-09 09:34:01+00:00,29.0,10.69,30.0,12.33,12.41,47.59359,-54.27349
2021-04-09 09:44:01+00:00,23.0,9.99,30.0,11.27,12.41,47.59359,-54.27349
2021-04-09 09:54:01+00:00,24.0,9.51,30.0,10.76,12.41,47.59359,-54.27349
2021-04-09 10:04:01+00:00,28.0,8.06,21.0,9.24,12.41,47.59359,-54.27349
2021-04-09 10:14:01+00:00,22.0,9.3,24.0,11.06,12.73,47.59359,-54.27349
2021-04-09 10:24:01+00:00,17.0,11.04,16.0,12.3,12.73,47.59359,-54.27349
2021-04-09 10:34:01+00:00,22.0,10.35,17.0,12.15,12.73,47.59359,-54.27349
2021-04-09 10:44:01+00:00,19.0,9.41,20.0,10.43,12.73,47.59359,-54.27349
2021-04-09 10:54:01+00:00,28.0,8.03,30.0,9.47,12.73,47.59359,-54.27349
2021-04-09 11:04:01+00:00,26.0,9.07,30.0,10.38,12.73,47.59359,-54.27349
2021-04-09 11:14:01+00:00,34.0,8.84,36.0,9.69,13.21,47.59359,-54.27349
2021-04-09 11:24:01+00:00,35.0,8.51,31.0,9.36,13.21,47.59359,-54.27349
2021-04-09 11:34:01+00:00,19.0,9.27,19.0,10.09,13.21,47.59359,-54.27349
2021-04-09 11:44:01+00:00,20.0,10.24,21.0,12.49,13.21,47.59359,-54.27349
2021-04-09 11:54:01+00:00,21.0,10.53,26.0,12.22,13.21,47.59359,-54.27349
2021-04-09 12:04:01+00:00,32.0,9.15,32.0,9.73,13.21,47.59359,-54.27349
2021-04-09 12:14:01+00:00,32.0,9.84,35.0,11.02,13.84,47.59359,-54.27349
2021-04-09 12:24:01+00:00,30.0,9.81,32.0,11.08,13.84,47.59359,-54.27349
2021-04-09 12:34:01+00:00,24.0,11.2,16.0,12.6,13.84,47.59359,-54.27349
2021-04-09 12:44:01+00:00,27.0,9.83,26.0,10.74,13.84,47.59359,-54.27349
2021-04-09 12:54:01+00:00,22.0,8.65,26.0,9.55,13.84,47.59359,-54.27349
2021-04-09 13:04:01+00:00,32.0,8.25,32.0,8.98,13.84,47.59359,-54.27349
2021-04-09 13:14:01+00:00,24.0,9.13,29.0,9.63,13.84,47.59359,-54.27349
2021-04-09 13:24:01+00:00,34.0,9.72,36.0,10.45,13.84,47.59359,-54.27349
2021-04-09 13:34:01+00:00,30.0,10.52,32.0,11.69,13.84,47.59359,-54.27349
2021-04-09 13:44:01+00:00,36.0,9.96,36.0,11.16,13.84,47.59359,-54.27349
2021-04-09 13:54:01+00:00,36.0,9.88,36.0,10.59,13.84,47.59359,-54.27349
2021-04-09 14:04:01+00:00,32.0,10.05,35.0,11.2,13.84,47.59359,-54.27349
2021-04-09 14:14:01+00:00,31.0,11.57,31.0,12.76,13.92,47.59359,-54.27349
2021-04-09 14:24:01+00:00,27.0,12.8,28.0,14.7,13.92,47.59359,-54.27349
2021-04-09 14:34:01+00:00,33.0,13.64,32.0,15.71,13.92,47.59359,-54.27349
2021-04-09 14:44:01+00:00,31.0,13.22,28.0,14.65,13.92,47.59359,-54.27349
2021-04-09 14:54:01+00:00,34.0,12.36,33.0,13.79,13.92,47.59359,-54.27349
2021-04-09 15:04:01+00:00,31.0,12.66,32.0,14.65,13.92,47.59359,-54.27349
2021-04-09 15:14:01+00:00,35.0,10.75,36.0,11.45,13.92,47.59359,-54.27349
2021-04-09 15:24:01+00:00,35.0,10.29,34.0,11.72,13.92,47.59359,-54.27349
2021-04-09 15:34:01+00:00,34.0,9.24,36.0,10.05,13.92,47.59359,-54.27349
2021-04-09 15:44:01+00:00,39.0,8.94,37.0,9.79,13.92,47.59359,-54.27349
2021-04-09 15:54:01+00:00,36.0,8.29,38.0,9.12,13.92,47.59359,-54.27349
2021-04-09 16:04:01+00:00,33.0,10.35,33.0,11.85,13.92,47.59359,-54.27349
2021-04-09 16:14:01+00:00,35.0,9.57,36.0,10.28,13.84,47.59359,-54.27349
2021-04-09 16:24:01+00:00,36.0,9.23,38.0,10.38,13.84,47.59359,-54.27349
2021-04-09 16:34:01+00:00,34.0,10.55,36.0,12.34,13.84,47.59359,-54.27349
2021-04-09 16:44:01+00:00,34.0,12.12,33.0,13.23,13.84,47.59359,-54.27349
2021-04-09 16:54:01+00:00,34.0,11.29,30.0,12.78,13.84,47.59359,-54.27349
2021-04-09 17:04:01+00:00,37.0,11.66,37.0,13.04,13.84,47.59359,-54.27349
2021-04-09 17:14:01+00:00,32.0,11.8,33.0,13.53,14.0,47.59359,-54.27349
2021-04-09 17:24:01+00:00,29.0,11.98,30.0,14.34,14.0,47.59359,-54.27349
2021-04-09 17:34:01+00:00,25.0,10.17,30.0,11.31,14.0,47.59359,-54.27349
2021-04-09 17:44:01+00:00,27.0,9.82,26.0,11.19,14.0,47.59359,-54.27349
2021-04-09 17:54:01+00:00,26.0,9.73,21.0,11.01,14.0,47.59359,-54.27349
2021-04-09 18:04:01+00:00,23.0,8.79,21.0,9.72,14.0,47.59359,-54.27349
2021-04-09 18:14:01+00:00,22.0,9.94,25.0,11.36,13.76,47.59359,-54.27349
2021-04-09 18:24:01+00:00,21.0,11.67,27.0,13.23,13.76,47.59359,-54.27349
2021-04-09 18:34:01+00:00,22.0,10.41,25.0,12.02,13.76,47.59359,-54.27349
2021-04-09 18:44:01+00:00,19.0,11.06,14.0,12.57,13.76,47.59359,-54.27349
2021-04-09 18:54:01+00:00,24.0,10.3,25.0,11.37,13.76,47.59359,-54.27349
2021-04-09 19:04:01+00:00,19.0,11.34,19.0,13.14,13.76,47.59359,-54.27349
2021-04-09 19:14:01+00:00,24.0,10.18,25.0,11.21,13.84,47.59359,-54.27349
2021-04-09 19:24:01+00:00,23.0,8.84,26.0,9.93,13.84,47.59359,-54.27349
2021-04-09 19:34:01+00:00,26.0,9.2,23.0,10.24,13.84,47.59359,-54.27349
2021-04-09 19:44:01+00:00,24.0,9.31,25.0,10.03,13.84,47.59359,-54.27349
2021-04-09 19:54:01+00:00,26.0,9.71,22.0,11.3,13.84,47.59359,-54.27349
2021-04-09 20:04:01+00:00,25.0,9.97,24.0,11.04,13.84,47.59359,-54.27349
2021-04-09 20:14:01+00:00,23.0,11.0,22.0,12.2,13.53,47.59359,-54.27349
2021-04-09 20:24:01+00:00,22.0,10.72,22.0,12.77,13.53,47.59359,-54.27349
2021-04-09 20:34:01+00:00,22.0,11.23,25.0,12.6,13.53,47.59359,-54.27349
2021-04-09 20:44:01+00:00,22.0,9.94,22.0,11.97,13.53,47.59359,-54.27349
2021-04-09 20:54:01+00:00,22.0,10.6,24.0,11.75,13.53,47.59359,-54.27349
2021-04-09 21:04:01+00:00,21.0,9.89,22.0,11.28,13.53,47.59359,-54.27349
2021-04-09 21:14:01+00:00,20.0,8.41,20.0,9.18,13.13,47.59359,-54.27349
2021-04-09 21:24:01+00:00,21.0,9.55,24.0,11.41,13.13,47.59359,-54.27349
2021-04-09 21:34:01+00:00,18.0,9.03,20.0,10.35,13.13,47.59359,-54.27349
2021-04-09 21:44:01+00:00,24.0,9.25,21.0,10.11,13.13,47.59359,-54.27349
2021-04-09 21:54:01+00:00,22.0,8.82,23.0,9.46,13.13,47.59359,-54.27349
2021-04-09 22:04:01+00:00,18.0,8.05,13.0,9.19,13.13,47.59359,-54.27349
2021-04-09 22:14:01+00:00,22.0,9.62,21.0,11.46,12.65,47.59359,-54.27349
2021-04-09 22:24:01+00:00,26.0,9.65,30.0,10.57,12.65,47.59359,-54.27349
2021-04-09 22:34:01+00:00,23.0,8.97,30.0,9.97,12.65,47.59359,-54.27349
2021-04-09 22:44:01+00:00,23.0,9.4,23.0,10.61,12.65,47.59359,-54.27349
2021-04-09 22:54:01+00:00,20.0,8.63,18.0,9.68,12.65,47.59359,-54.27349
2021-04-09 23:04:01+00:00,23.0,8.38,24.0,9.2,12.65,47.59359,-54.27349
2021-04-09 23:14:01+00:00,25.0,8.38,24.0,9.1,12.57,47.59359,-54.27349
2021-04-09 23:24:01+00:00,23.0,9.12,19.0,10.34,12.57,47.59359,-54.27349
2021-04-09 23:34:01+00:00,26.0,9.01,26.0,9.83,12.57,47.59359,-54.27349
2021-04-09 23:44:01+00:00,26.0,8.84,27.0,9.98,12.57,47.59359,-54.27349
2021-04-09 23:54:01+00:00,30.0,8.5,31.0,9.53,12.57,47.59359,-54.27349
